Location: Poughquag
(41.6090°N, 73.6820°W)
Time: 02:54:39
(UTC-04:00)

Transit 2A - Pass Details

Date: 07 June 2020
Orbit: 592 x 967 km, 66.7° (Epoch: 06 July)

Event Time Altitude Azimuth Distance (km) Brightness Sun altitude
Rises 21:09:14 0° 329° (NNW) 3,578 11.0 -7.2°
Reaches altitude 10° 21:11:44 10° 330° (NNW) 2,663 10.1 -7.6°
Maximum altitude 21:18:03 87° 60° (ENE) 971 6.5 -8.5°
Drops below altitude 10° 21:24:26 10° 151° (SSE) 2,686 8.2 -9.4°
Enters shadow 21:24:30 10° 151° (SSE) 2,709 8.2 -9.4°
Sets 21:26:58 0° 151° (SSE) 3,611 - -9.7°
